DW2465 Weather Reports


time (UTC)temp
F
wind
direction
speed
knots
gust
knots
rain 1hr
in
rain 24hr
in
rain mn
in
humidity
%
barometer
mb
20220927010056 55 294 0.0 0.0 0.00 0.00 0.00 55 1016.5
20220927004556 56 286 0.0 0.0 0.00 0.00 0.00 54 1016.4
20220927003101 57 291 0.0 0.0 0.00 0.00 0.00 51 1016.3
20220927001554 57 294 0.0 0.0 0.00 0.00 0.00 49 1016.2
20220927000054 58 303 0.0 0.9 0.00 0.00 0.00 47 1016.2
20220926234550 59 261 0.0 7.8 0.00 0.00 0.00 45 1016.2
20220926233050 60 302 0.9 12.2 0.00 0.00 0.00 44 1016.3
20220926231548 60 298 0.0 13.9 0.00 0.00 0.00 44 1016.3
20220926230048 61 327 3.5 13.9 0.00 0.00 0.00 43 1016.0
20220926224547 61 36 0.0 13.9 0.00 0.00 0.00 44 1016.2
20220926223057 61 320 0.0 12.2 0.00 0.00 0.00 44 1016.3
20220926221520 61 271 0.0 12.2 0.00 0.00 0.00 43 1016.2
20220926220016 61 304 4.3 17.4 0.00 0.00 0.00 41 1016.4
20220926214513 61 269 6.1 18.2 0.00 0.00 0.00 41 1016.4
20220926213012 61 298 6.1 16.5 0.00 0.00 0.00 39 1016.3
20220926211512 61 302 1.7 17.4 0.00 0.00 0.00 39 1016.4
20220926210012 61 319 7.0 18.2 0.00 0.00 0.00 38 1016.2
20220926204508 61 343 0.9 14.8 0.00 0.00 0.00 39 1016.2
20220926203017 60 301 3.5 14.8 0.00 0.00 0.00 40 1016.2
20220926201503 60 318 0.9 13.9 0.00 0.00 0.00 41 1016.4
20220926200003 60 342 0.0 13.0 0.00 0.00 0.00 41 1016.3
20220926194559 59 296 1.7 12.2 0.00 0.00 0.00 41 1016.2
20220926193129 59 327 4.3 12.2 0.00 0.00 0.00 42 1016.3
20220926191626 59 263 4.3 15.6 0.00 0.00 0.00 43 1016.7
20220926190055 59 281 1.7 15.6 0.00 0.00 0.00 43 1016.9
20220926184551 58 243 2.6 13.0 0.00 0.00 0.00 46 1017.0
20220926183059 58 306 0.0 13.0 0.00 0.00 0.00 48 1016.9
20220926181551 58 360 6.1 14.8 0.00 0.00 0.00 47 1017.0
20220926180055 57 280 0.0 13.9 0.00 0.00 0.00 50 1016.9
20220926174542 56 298 7.0 14.8 0.00 0.00 0.00 50 1017.0
20220926173047 56 296 4.3 15.6 0.00 0.00 0.00 50 1017.1
20220926171539 56 323 1.7 16.5 0.00 0.00 0.00 52 1017.0
20220926170038 56 250 0.9 11.3 0.00 0.00 0.00 54 1017.1
20220926164506 55 283 0.0 14.8 0.00 0.00 0.00 51 1017.2
20220926163004 55 323 1.7 15.6 0.00 0.00 0.00 52 1017.2
20220926161605 54 11 0.9 18.2 0.00 0.00 0.00 52 1017.2
20220926160112 54 320 3.5 15.6 0.00 0.00 0.00 54 1017.3
20220926154559 53 284 2.6 14.8 0.00 0.00 0.00 59 1017.4
20220926153056 53 296 6.1 20.0 0.00 0.00 0.00 60 1017.3
20220926151559 52 309 7.8 17.4 0.00 0.00 0.00 61 1017.3
20220926150047 53 268 7.0 17.4 0.00 0.00 0.00 62 1017.2
20220926144548 52 313 0.9 15.6 0.00 0.00 0.00 64 1017.2
20220926144545 52 300 0.9 15.6 0.00 0.00 0.00 64 1017.2
20220926143041 51 333 6.1 19.1 0.00 0.00 0.00 65 1017.1
20220926141544 51 336 5.2 16.5 0.00 0.00 0.00 67 1017.1
20220926140043 50 337 1.7 10.4 0.00 0.00 0.00 70 1016.9
20220926134545 49 276 0.0 3.5 0.00 0.00 0.00 72 1016.8
20220926133033 48 292 0.0 9.6 0.00 0.00 0.00 74 1016.6
20220926131554 47 296 0.0 7.0 0.00 0.00 0.00 76 1016.5
20220926130049 46 294 0.0 0.9 0.00 0.00 0.00 77 1016.3
20220926124527 46 295 0.0 0.9 0.00 0.00 0.00 77 1016.2
20220926123025 46 296 0.0 0.9 0.00 0.00 0.00 78 1016.1
20220926121528 46 309 0.0 7.0 0.00 0.00 0.00 77 1015.8
20220926120056 46 300 0.0 7.8 0.00 0.00 0.00 78 1015.7
20220926114550 46 270 0.0 6.1 0.00 0.00 0.00 78 1015.6
20220926113019 45 267 0.0 0.9 0.00 0.00 0.00 77 1015.4
20220926111518 46 261 0.0 7.0 0.00 0.00 0.00 76 1015.4
20220926110018 46 295 0.0 0.0 0.00 0.00 0.00 76 1015.3
20220926104521 46 273 0.0 0.0 0.00 0.00 0.00 76 1015.2
20220926103021 46 288 0.0 2.6 0.00 0.00 0.00 75 1015.1
20220926101510 46 262 0.0 0.0 0.00 0.00 0.00 75 1015.1
20220926100106 46 281 0.0 0.0 0.00 0.00 0.00 74 1015.2
20220926094539 46 297 0.0 0.9 0.00 0.00 0.00 74 1014.9
20220926093020 46 300 0.0 4.3 0.00 0.00 0.00 74 1014.8
20220926091504 46 279 0.0 1.7 0.00 0.00 0.00 74 1014.7
20220926090100 46 274 0.0 0.0 0.00 0.00 0.00 73 1014.7
20220926084611 47 272 0.0 3.5 0.00 0.00 0.00 73 1014.6
20220926083056 47 270 0.0 0.0 0.00 0.00 0.00 72 1014.5
20220926081609 47 281 0.0 5.2 0.00 0.00 0.00 71 1014.5
20220926080036 48 263 0.0 0.0 0.00 0.00 0.00 69 1014.4
20220926074521 48 296 0.0 0.0 0.00 0.00 0.00 68 1014.4
20220926073021 48 291 0.0 5.2 0.00 0.00 0.00 68 1014.3
20220926071515 49 281 0.0 0.0 0.00 0.00 0.00 67 1014.3
20220926070011 49 292 0.0 7.0 0.00 0.00 0.00 65 1014.5
20220926064510 50 273 0.0 0.9 0.00 0.00 0.00 63 1014.3
20220926063044 50 315 0.0 8.7 0.00 0.00 0.00 63 1014.4
20220926061537 50 295 0.0 3.5 0.00 0.00 0.00 63 1014.3
20220926060006 51 292 0.0 7.0 0.00 0.00 0.00 62 1014.3
20220926054504 51 306 0.0 2.6 0.00 0.00 0.00 61 1014.2
20220926053059 51 291 0.0 9.6 0.00 0.00 0.00 61 1014.3
20220926051557 52 309 0.0 8.7 0.00 0.00 0.00 60 1014.4
20220926050055 52 320 0.0 6.1 0.00 0.00 0.00 60 1014.4
20220926044556 52 292 0.0 3.5 0.00 0.00 0.00 61 1014.4
20220926043054 52 294 0.0 7.0 0.00 0.00 0.00 61 1014.4
20220926041552 53 302 0.0 3.5 0.00 0.00 0.00 62 1014.4
20220926040103 53 276 0.0 3.5 0.00 0.00 0.00 61 1014.3
20220926034603 54 286 0.0 7.8 0.00 0.00 0.00 60 1014.1
20220926033140 55 283 0.0 0.0 0.00 0.00 0.00 57 1014.0
20220926031551 55 288 0.0 5.2 0.00 0.00 0.00 56 1014.0
20220926030057 56 302 0.0 10.4 0.00 0.00 0.00 55 1013.9
20220926024605 57 277 0.0 10.4 0.00 0.00 0.00 54 1013.9
20220926023013 57 281 0.9 13.0 0.00 0.00 0.00 53 1013.9
20220926021512 57 296 0.9 12.2 0.00 0.00 0.00 53 1013.8
20220926020012 57 313 1.7 18.2 0.00 0.00 0.00 53 1013.8
20220926014508 58 301 0.9 11.3 0.00 0.00 0.00 53 1013.6
20220926013006 58 301 1.7 9.6 0.00 0.00 0.00 52 1013.4
20220926011508 59 296 0.9 13.0 0.00 0.00 0.00 51 1013.3